[[{"header":{"parameterUnit":"m.s-1","parameterCategory":2,"la1":30.2991,"la2":30.254,"lo1":-89.0895,"lo2":-89.0444,"dy":0.0017,"dx":0.0017,"nx":28,"ny":28,"refTime":"2025-04-14T09:00:00:Z","depth":"0","parameterNumber":2,"parameterNumberName":"U-component_of_CURRENTS"},"data":[0,0,0,0,0,0,0,0,0,0,0,0,0,0,0,0,0,0,0,0,0,0,0,0,0,0,0,0,0,0,0,0,0,0,0,0,0,0,0,0,0,0,0,0,0,0,0,0,0,0,0,0,0,0,0,0,0,0,0.0042,0.0042,0,0.0092,0.0093,0.0093,0.0094,0.0094,0.0093,0.0092,0.0062,0.0062,0.0062,0,0,0,0,0,0,0,0,0,0,0,0,0,-0.0019,-0.0017,0.0041,0.0042,0.0042,0.0092,0.0093,0.0094,0.0095,0.0094,0.0093,0.0092,0.0062,0.0062,0.0062,0,0,0,0,0,0,0,0,0,0,0,0,0,0.0019,-0.0017,0.0041,0.0047,0.0048,0.0092,0.0093,0.0094,0.0095,0.0094,0.0092,0.0091,0.0062,0.0062,0.0062,0.0086,0,0,0.0062,0.0062,0,0,0,0,0,0,0,0,0.0017,0.0022,0.0046,0.0047,0.0048,0.0084,0.006,0.0087,0.0095,0.0079,0.0092,0.0091,0.0061,0.0061,0.0078,0.0085,0.0084,0.0062,0.0062,0.0062,0.0062,0,0,0,0,0,0,0,0.0014,0.002,0.0064,0.0046,0.0048,0.0059,0.0063,0.0066,0.0077,0.0081,0.008,0.0083,0.0061,0.0078,0.0077,0.0083,0.0062,0.0062,0.0062,0.0062,0.0052,0.0051,0,0,0,0,0,0,0.0004,0.0017,0.0062,0.0065,0.0027,0.0061,0.0066,0.0075,0.0078,0.0078,0.0084,0.0083,0.0079,0.0077,0.0075,0.0075,0.0062,0.0062,0.0062,0.0052,0.0052,0.0051,0,0,0,0,0,0,0.0002,0.0008,0.006,0.004,0.0047,0.0063,0.0074,0.0077,0.0083,0.0081,0.0079,0.0086,0.0077,0.0075,0.0066,0.0075,0.0062,0.0062,0.0052,0.0052,0.0052,0.0093,0,0,0,0,0,0,0.0001,0.0007,0.0009,0.004,0.0048,0.0071,0.0075,0.0079,0.0086,0.0085,0.0083,0.008,0.0076,0.0066,0.0066,0.0074,0.0062,0.0053,0.0052,0.0052,0.0092,0.0094,0.0096,0,0,0,0,0,-0.0002,0.0003,0.0009,0.0014,0.0051,0.007,0.0076,0.0084,0.0088,0.0087,0.0086,0.0079,0.0062,0.0066,0.0066,0.0075,0.0053,0.0052,0.0052,0.0091,0.0093,0.0096,0,0,0,0,0,0,-0.0029,0.0004,0.0011,0.0023,0.0039,0.0069,0.0071,0.0084,0.0088,0.0082,0.0082,0.0079,0.0075,0.0064,0.0068,0.0067,0.0054,0.0054,0.0084,0.0087,0.0089,0.0061,0.0061,0,0,0,0,0,-0.0031,-0.0016,0.001,0.0018,0.0024,0.005,0.0059,0.0067,0.0076,0.0078,0.0076,0.0072,0.0077,0.0071,0.0068,0.0071,0.0058,0.0072,0.0074,0.0076,0.0051,0.005,0.005,0.005,0.005,0.005,0,0,-0.0038,-0.002,-0.0012,0.0013,0.0028,0.0043,0.0052,0.0063,0.0071,0.0073,0.0074,0.0079,0.0078,0.0082,0.0079,0.0072,0.0074,0.0076,0.0078,0.0051,0.005,0.005,0.005,0.0049,0.0049,0.0049,0,0,-0.004,-0.0031,-0.0015,-0.0005,0.0014,0.003,0.0031,0.0056,0.0057,0.0064,0.0072,0.0076,0.0075,0.0084,0.0088,0.0095,0.0086,0.0095,0.0084,0.0085,0.0085,0.0085,0.0091,0.0091,0.0095,0.0095,0.0095,0,-0.0055,-0.0028,-0.0011,0.0002,0.0008,0.0024,0.0035,0.0047,0.0062,0.0061,0.0055,0.007,0.0075,0.0092,0.0094,0.0101,0.0096,0.0084,0.0089,0.0088,0.0087,0.0094,0.0093,0.0097,0.0097,0.0097,0.0096,0,-0.0038,-0.0025,-0.0021,0.0006,0.0014,0.0021,0.0037,0.0039,0.0042,0.0053,0.0056,0.0068,0.0072,0.0086,0.0092,0.0097,0.0095,0.0098,0.0087,0.009,0.0096,0.0095,0.01,0.0099,0.0098,0.0098,0,0,-0.0057,-0.0015,-0.0015,-0.0005,0.0013,0.0023,0.0028,0.004,0.0043,0.0046,0.0052,0.0066,0.0068,0.007,0.0089,0.0087,0.0098,0.0084,0.0083,0.0097,0.0099,0.0105,0.0105,0.0104,0.0103,0.0103,0.0115,0,-0.0054,-0.0022,-0.0005,0.001,0.0024,0.0027,0.0034,0.0041,0.0043,0.0049,0.0056,0.007,0.0066,0.0079,0.0075,0.0092,0.0091,0.0093,0.0086,0.0085,0.0096,0.0102,0.0113,0.0125,0.0114,0.0114,0.0113,0,-0.0043,-0.0024,0.0001,0.0017,0.0021,0.0031,0.0034,0.0039,0.0047,0.0044,0.0046,0.0058,0.0066,0.0064,0.0065,0.0066,0.0071,0.008,0.0081,0.0061,0.0087,0.0113,0.0122,0.0141,0.0111,0.0111,0.0112,0,-0.005,-0.0025,-0.0005,-0.0,0.0024,0.0025,0.0031,0.0037,0.0042,0.0045,0.005,0.0053,0.0065,0.0057,0.0067,0.0066,0.0066,0.0077,0.0087,0.0088,0.0079,0.008,0.0104,0.0066,0.0066,0.0066,0.0066,0,-0.0047,-0.0036,-0.0007,0.0004,0.0016,0.0023,0.0032,0.0032,0.004,0.0053,0.0048,0.0064,0.0059,0.0067,0.0065,0.0068,0.0066,0.0072,0.0085,0.0096,0.0098,0.0098,0.009,0.0066,0.0066,0.0066,0.0066,0,-0.0048,-0.0027,-0.0006,0.0015,0.002,0.0027,0.0043,0.0052,0.0046,0.0064,0.0067,0.0074,0.008,0.0079,0.0083,0.0075,0.0074,0.0082,0.0096,0.011,0.013,0.0124,0.0049,0.0067,0.0091,0.0091,0.0091,0,-0.0035,-0.0024,0.0003,0.0017,0.0029,0.0041,0.0056,0.0058,0.0073,0.0077,0.0095,0.0101,0.0116,0.0114,0.0101,0.0096,0.0089,0.0107,0.0101,0.0122,0.0125,0.0062,0.008,0.0118,0.0119,0.0119,0.0119,0,-0.0022,-0.0016,0.0001,0.0026,0.0047,0.0072,0.0092,0.0106,0.0112,0.0119,0.0135,0.0143,0.014,0.0131,0.0115,0.0122,0.0096,0.0112,0.0129,0.0133,0.0067,0.0097,0.0126,0.0121,0.0121,0.0121,0.0121,0.0121,-0.0013,-0.0006,0.0012,0.0033,0.006,0.0095,0.012,0.014,0.0158,0.0169,0.0172,0.0168,0.0145,0.0122,0.0124,0.0137,0.0108,0.0157,0.0145,0.0078,0.0091,0.0123,0.0135,0.0135,0.0135,0.0135,0.0135,0,0.0007,0.0004,0.0019,0.0053,0.0083,0.0096,0.0141,0.0165,0.0191,0.0183,0.0189,0.0146,0.0149,0.0132,0.0129,0.0159,0.0137,0.0192,0.0123,0.0142,0.0181,0.0182,0.0209,0.0209,0.0209,0.0209,0.0209,0.0209,0.0022,0.0025,0.0023,0.0063,0.0088,0.0143,0.0173,0.02,0.0203,0.0174,0.0134,0.0102,0.0058,0.0051,0.0124,0.0165,0.017,0.0147,0.016,0.0217,0.0213,0.021,0.0211,0.0244,0.0244,0.0118,0.0117,0.0117]},{"header":{"parameterUnit":"m.s-1","parameterCategory":2,"la1":30.2991,"la2":30.254,"lo1":-89.0895,"lo2":-89.0444,"dy":0.0017,"dx":0.0017,"nx":28,"ny":28,"refTime":"2025-04-14T09:00:00:Z","depth":"0","parameterNumber":3,"parameterNumberName":"V-component_of_CURRENTS"},"data":[0,0,0,0,0,0,0,0,0,0,0,0,0,0,0,0,0,0,0,0,0,0,0,0,0,0,0,0,0,0,0,0,0,0,0,0,0,0,0,0,0,0,0,0,0,0,0,0,0,0,0,0,0,0,0,0,0,0,-0.0026,-0.0026,0,-0.0061,-0.0061,-0.0062,-0.0077,-0.0076,-0.0076,-0.0076,-0.0069,-0.0069,-0.0069,0,0,0,0,0,0,0,0,0,0,0,0,0,0.0003,0.0003,-0.0026,-0.0026,-0.0027,-0.0061,-0.0061,-0.0062,-0.0077,-0.0076,-0.0076,-0.0076,-0.0069,-0.0069,-0.0069,0,0,0,0,0,0,0,0,0,0,0,0,0,-0.0021,0.0003,-0.0026,-0.0036,-0.0037,-0.006,-0.0061,-0.0062,-0.0077,-0.0076,-0.0076,-0.0076,-0.0069,-0.0069,-0.0069,-0.0078,0,0,-0.0069,-0.0069,0,0,0,0,0,0,0,0,-0.0019,-0.0022,-0.0035,-0.0036,-0.0037,-0.0062,-0.0048,-0.0065,-0.0077,-0.0065,-0.0076,-0.0075,-0.0061,-0.0062,-0.0074,-0.0078,-0.0078,-0.0069,-0.0069,-0.0069,-0.007,0,0,0,0,0,0,0,-0.0017,-0.0021,-0.0042,-0.0035,-0.0036,-0.0047,-0.005,-0.0052,-0.0066,-0.0066,-0.0066,-0.0066,-0.0062,-0.0074,-0.0073,-0.0078,-0.0069,-0.0069,-0.007,-0.007,-0.0084,-0.0085,0,0,0,0,0,0,-0.0008,-0.0019,-0.0041,-0.0043,-0.0024,-0.0047,-0.0051,-0.0056,-0.0067,-0.0068,-0.0066,-0.0067,-0.0074,-0.0073,-0.0073,-0.0079,-0.0069,-0.007,-0.007,-0.0084,-0.0085,-0.0085,0,0,0,0,0,0,-0.0007,-0.0009,-0.004,-0.003,-0.0034,-0.0048,-0.0054,-0.0057,-0.0064,-0.0068,-0.0068,-0.007,-0.0073,-0.0073,-0.0078,-0.0079,-0.007,-0.007,-0.0084,-0.0084,-0.0085,-0.0095,0,0,0,0,0,0,-0.0006,-0.0009,-0.0009,-0.0029,-0.0034,-0.0052,-0.0054,-0.0058,-0.0064,-0.0065,-0.007,-0.007,-0.0073,-0.0078,-0.0078,-0.0079,-0.007,-0.0083,-0.0084,-0.0085,-0.0094,-0.0095,-0.0097,0,0,0,0,0,-0.0005,-0.0011,-0.0009,-0.0012,-0.0034,-0.0052,-0.0056,-0.0066,-0.0064,-0.0071,-0.0076,-0.0069,-0.0081,-0.0078,-0.0078,-0.0079,-0.0083,-0.0084,-0.0085,-0.0093,-0.0095,-0.0097,0,0,0,0,0,0,0.0,-0.0013,-0.0012,-0.0021,-0.0032,-0.0054,-0.0059,-0.0064,-0.0076,-0.0074,-0.0076,-0.0076,-0.0083,-0.008,-0.0076,-0.0086,-0.008,-0.0081,-0.0087,-0.0088,-0.009,-0.0071,-0.007,0,0,0,0,0,0.0003,-0.0005,-0.0017,-0.0024,-0.0027,-0.0041,-0.0048,-0.0057,-0.0068,-0.0073,-0.0075,-0.0079,-0.0088,-0.0086,-0.0094,-0.0097,-0.009,-0.0097,-0.0098,-0.0099,-0.0085,-0.009,-0.009,-0.0087,-0.0087,-0.0087,0,0,0.0005,-0.0005,-0.0008,-0.0023,-0.0032,-0.004,-0.0045,-0.0058,-0.0062,-0.0069,-0.0074,-0.0085,-0.0091,-0.0101,-0.0102,-0.0096,-0.0099,-0.01,-0.0101,-0.0085,-0.0091,-0.0091,-0.0091,-0.0088,-0.0088,-0.0088,0,0,-0.0002,-0.0005,-0.0013,-0.002,-0.0031,-0.0041,-0.0041,-0.0058,-0.006,-0.0068,-0.0079,-0.0089,-0.0094,-0.0104,-0.0108,-0.0119,-0.011,-0.0122,-0.0108,-0.0114,-0.0114,-0.0114,-0.0111,-0.0111,-0.0118,-0.0118,-0.0118,0,0.0004,-0.0012,-0.0019,-0.0026,-0.003,-0.0038,-0.0046,-0.0051,-0.0067,-0.0066,-0.0066,-0.0083,-0.0094,-0.0104,-0.0113,-0.0121,-0.0119,-0.0102,-0.0115,-0.0115,-0.0115,-0.0112,-0.0111,-0.0118,-0.0118,-0.0118,-0.0118,0,-0.0011,-0.0018,-0.0023,-0.0034,-0.0039,-0.005,-0.0052,-0.0055,-0.0054,-0.0058,-0.0062,-0.0079,-0.0087,-0.0098,-0.0108,-0.0115,-0.0112,-0.0121,-0.011,-0.0116,-0.0112,-0.0111,-0.0119,-0.0119,-0.0119,-0.0118,0,0,-0.0009,-0.003,-0.003,-0.0034,-0.0044,-0.0051,-0.005,-0.0054,-0.0049,-0.0053,-0.0049,-0.0069,-0.0073,-0.0078,-0.0095,-0.0098,-0.0107,-0.0106,-0.0106,-0.0099,-0.0111,-0.011,-0.0109,-0.0119,-0.0119,-0.0119,-0.0112,0,-0.0017,-0.0034,-0.0043,-0.0053,-0.0058,-0.0059,-0.0059,-0.0058,-0.0053,-0.0049,-0.0052,-0.0058,-0.0066,-0.0075,-0.0079,-0.0105,-0.0104,-0.0107,-0.0108,-0.0108,-0.0104,-0.0108,-0.0104,-0.0097,-0.0111,-0.011,-0.011,0,-0.0027,-0.0037,-0.0053,-0.0061,-0.0062,-0.0066,-0.006,-0.0062,-0.0053,-0.0047,-0.004,-0.0042,-0.005,-0.0058,-0.0072,-0.0074,-0.0087,-0.0098,-0.0099,-0.0088,-0.0105,-0.0093,-0.0095,-0.0084,-0.0109,-0.0109,-0.0109,0,-0.0026,-0.0041,-0.0056,-0.0059,-0.007,-0.0068,-0.0069,-0.0059,-0.0057,-0.0044,-0.0042,-0.0038,-0.0048,-0.0051,-0.0072,-0.0074,-0.0083,-0.0094,-0.0098,-0.0098,-0.0087,-0.0087,-0.0074,-0.0095,-0.0095,-0.0095,-0.0095,0,-0.0034,-0.0042,-0.0055,-0.006,-0.0065,-0.0068,-0.0069,-0.006,-0.0055,-0.0057,-0.0044,-0.0043,-0.0047,-0.0053,-0.0063,-0.0075,-0.0077,-0.0086,-0.0094,-0.0092,-0.0092,-0.0076,-0.0062,-0.0094,-0.0094,-0.0095,-0.0095,0,-0.0035,-0.0048,-0.0059,-0.0067,-0.0067,-0.0066,-0.007,-0.0068,-0.0063,-0.0063,-0.0061,-0.0053,-0.006,-0.0059,-0.0074,-0.0073,-0.0063,-0.0085,-0.0076,-0.0083,-0.007,-0.0057,0.0024,0.0017,-0.0079,-0.0079,-0.0079,0,-0.0046,-0.0052,-0.0058,-0.0062,-0.0066,-0.007,-0.0072,-0.0068,-0.0069,-0.0072,-0.0074,-0.0074,-0.0075,-0.008,-0.0078,-0.0077,-0.0062,-0.0073,-0.0076,-0.0059,-0.0051,0.0005,-0.0003,-0.0068,-0.0068,-0.0068,-0.0068,0,-0.0056,-0.0054,-0.0057,-0.0062,-0.0065,-0.0071,-0.0073,-0.0074,-0.0079,-0.0079,-0.0084,-0.0083,-0.0087,-0.0076,-0.007,-0.0076,-0.0039,-0.007,-0.0059,-0.0038,0.0031,0.0016,-0.0078,-0.0067,-0.0067,-0.0067,-0.0067,-0.0067,-0.0059,-0.0055,-0.0056,-0.0057,-0.0063,-0.0066,-0.006,-0.0068,-0.0066,-0.0061,-0.0083,-0.0076,-0.006,-0.0049,-0.0056,-0.0046,-0.003,-0.0045,-0.0029,0.0027,0.0024,-0.006,-0.0057,-0.0057,-0.0057,-0.0057,-0.0058,0,-0.0062,-0.005,-0.0054,-0.0051,-0.0055,-0.0058,-0.0058,-0.0044,-0.0035,-0.0046,-0.0049,-0.003,-0.0015,-0.0008,0.0011,0.0006,0.0019,-0.0002,0.0068,0.0053,-0.0034,-0.0033,-0.0019,-0.0019,-0.0019,-0.0019,-0.0019,-0.0019,-0.0063,-0.0052,-0.0045,-0.004,-0.0042,-0.0027,-0.002,0.0007,0.0014,0.0033,0.0038,0.0022,0.0048,0.0127,0.0111,0.0078,0.0097,0.0116,0.0107,0.0031,0.0028,0.0026,0.0028,0.0056,0.0056,0.0199,0.02,0.0201]}],[{"header":{"parameterUnit":"m.s-1","parameterCategory":2,"la1":30.2991,"la2":30.254,"lo1":-89.0895,"lo2":-89.0444,"dy":0.0017,"dx":0.0017,"nx":28,"ny":28,"refTime":"2025-04-14T09:00:00:Z","depth":"2","parameterNumber":2,"parameterNumberName":"U-component_of_CURRENTS"},"data":[0,0,0,0,0,0,0,0,0,0,0,0,0,0,0,0,0,0,0,0,0,0,0,0,0,0,0,0,0,0,0,0,0,0,0,0,0,0,0,0,0,0,0,0,0,0,0,0,0,0,0,0,0,0,0,0,0,0,-0.0226,-0.0226,0,-0.0185,-0.0184,-0.0184,-0.0171,-0.0171,-0.0172,-0.0172,-0.0202,-0.0202,-0.0203,0,0,0,0,0,0,0,0,0,0,0,0,0,-0.0269,-0.0268,-0.0226,-0.0226,-0.0225,-0.0185,-0.0184,-0.0184,-0.0171,-0.0171,-0.0172,-0.0172,-0.0202,-0.0202,-0.0203,0,0,0,0,0,0,0,0,0,0,0,0,0,-0.024,-0.0268,-0.0226,-0.0215,-0.0214,-0.0185,-0.0184,-0.0184,-0.0171,-0.0172,-0.0172,-0.0172,-0.0201,-0.0202,-0.0203,-0.0198,0,0,-0.0205,-0.0205,0,0,0,0,0,0,0,0,-0.0242,-0.0239,-0.0217,-0.0216,-0.0214,-0.0185,-0.021,-0.0192,-0.0171,-0.0186,-0.0172,-0.0173,-0.0203,-0.0204,-0.0192,-0.0199,-0.02,-0.0205,-0.0206,-0.0206,-0.0206,0,0,0,0,0,0,0,-0.0244,-0.024,-0.0209,-0.0217,-0.0215,-0.0204,-0.02,-0.0206,-0.0193,-0.0185,-0.0184,-0.0181,-0.0203,-0.0191,-0.0193,-0.0201,-0.0205,-0.0206,-0.0206,-0.0207,-0.0232,-0.0232,0,0,0,0,0,0,-0.0252,-0.0242,-0.021,-0.0208,-0.0231,-0.0203,-0.0199,-0.0193,-0.0191,-0.0191,-0.0181,-0.0181,-0.019,-0.0192,-0.0194,-0.0188,-0.0206,-0.0207,-0.0207,-0.0231,-0.0232,-0.0232,0,0,0,0,0,0,-0.0253,-0.025,-0.0212,-0.0225,-0.022,-0.0202,-0.0195,-0.0192,-0.0185,-0.0188,-0.0189,-0.0178,-0.019,-0.0193,-0.0203,-0.0189,-0.0207,-0.0208,-0.0231,-0.0231,-0.0232,-0.0176,0,0,0,0,0,0,-0.0255,-0.025,-0.0247,-0.0226,-0.0219,-0.0209,-0.0195,-0.0191,-0.0183,-0.0183,-0.0186,-0.0189,-0.0191,-0.0201,-0.0203,-0.019,-0.0208,-0.0231,-0.0231,-0.0232,-0.0177,-0.0174,-0.0172,0,0,0,0,0,-0.0256,-0.0252,-0.0247,-0.0244,-0.0216,-0.0209,-0.0205,-0.0193,-0.0183,-0.0187,-0.0182,-0.0189,-0.0206,-0.0202,-0.0204,-0.0191,-0.0231,-0.0231,-0.0232,-0.0179,-0.0175,-0.0172,0,0,0,0,0,0,-0.0273,-0.025,-0.0244,-0.0235,-0.023,-0.0208,-0.0204,-0.0195,-0.019,-0.0186,-0.0188,-0.0191,-0.0193,-0.0208,-0.0203,-0.0203,-0.0221,-0.0222,-0.018,-0.0177,-0.0174,-0.02,-0.0209,0,0,0,0,0,-0.0274,-0.0263,-0.0249,-0.0243,-0.0239,-0.0221,-0.0215,-0.0207,-0.0199,-0.0196,-0.0197,-0.0199,-0.0195,-0.0199,-0.0205,-0.0205,-0.0222,-0.0202,-0.0199,-0.0196,-0.0221,-0.0223,-0.0222,-0.0234,-0.0234,-0.0234,0,0,-0.0276,-0.0265,-0.0257,-0.0246,-0.0235,-0.0226,-0.0218,-0.021,-0.0201,-0.0202,-0.0194,-0.0191,-0.0194,-0.0188,-0.0191,-0.0199,-0.0198,-0.0197,-0.0194,-0.0221,-0.0223,-0.0222,-0.0221,-0.0234,-0.0234,-0.0234,0,0,-0.0273,-0.0268,-0.0255,-0.0253,-0.0242,-0.0232,-0.0232,-0.0216,-0.0209,-0.0205,-0.0192,-0.0188,-0.0193,-0.0183,-0.0179,-0.017,-0.0182,-0.017,-0.0172,-0.0172,-0.0171,-0.017,-0.0168,-0.0168,-0.0167,-0.0167,-0.0167,0,-0.0282,-0.0261,-0.0254,-0.0246,-0.0245,-0.0235,-0.0229,-0.0217,-0.0207,-0.0204,-0.0207,-0.0195,-0.0191,-0.0172,-0.0164,-0.0162,-0.0168,-0.0175,-0.0166,-0.0166,-0.0167,-0.0165,-0.0165,-0.0165,-0.0165,-0.0165,-0.0165,0,-0.0265,-0.0256,-0.0252,-0.0236,-0.0236,-0.0233,-0.0222,-0.0216,-0.021,-0.0202,-0.0196,-0.0187,-0.0185,-0.0169,-0.0163,-0.0154,-0.0157,-0.0157,-0.017,-0.0162,-0.0161,-0.0162,-0.0161,-0.0162,-0.0162,-0.0163,0,0,-0.0274,-0.0245,-0.0244,-0.0239,-0.0234,-0.0231,-0.022,-0.0212,-0.02,-0.02,-0.0191,-0.0176,-0.0176,-0.0175,-0.0157,-0.0156,-0.014,-0.0159,-0.016,-0.0148,-0.014,-0.0138,-0.014,-0.0132,-0.0133,-0.0133,-0.0129,0,-0.0268,-0.0245,-0.0237,-0.0228,-0.0221,-0.022,-0.0212,-0.0204,-0.0199,-0.0189,-0.0183,-0.017,-0.0173,-0.0159,-0.0161,-0.0149,-0.0146,-0.0142,-0.016,-0.0162,-0.0153,-0.0142,-0.014,-0.0137,-0.0131,-0.0131,-0.0131,0,-0.0254,-0.0243,-0.0226,-0.0221,-0.0219,-0.0211,-0.0205,-0.0199,-0.0186,-0.0184,-0.0182,-0.0174,-0.0166,-0.0168,-0.017,-0.0167,-0.0161,-0.0156,-0.0155,-0.0184,-0.0164,-0.0151,-0.014,-0.0134,-0.0134,-0.0134,-0.0133,0,-0.0252,-0.024,-0.0225,-0.0225,-0.0214,-0.0207,-0.0204,-0.0194,-0.0188,-0.0177,-0.0172,-0.0172,-0.0163,-0.0171,-0.0166,-0.0165,-0.0172,-0.0163,-0.0159,-0.0158,-0.018,-0.018,-0.0172,-0.0172,-0.0172,-0.0172,-0.0172,0,-0.0247,-0.0238,-0.022,-0.0212,-0.0202,-0.0204,-0.0191,-0.0185,-0.0178,-0.0167,-0.0169,-0.0156,-0.0166,-0.0164,-0.0168,-0.0173,-0.0174,-0.0171,-0.0162,-0.0158,-0.0157,-0.0183,-0.0184,-0.0172,-0.0172,-0.0172,-0.0172,0,-0.0235,-0.0223,-0.0209,-0.0196,-0.0193,-0.0184,-0.0176,-0.0165,-0.0168,-0.0151,-0.0146,-0.0144,-0.0143,-0.0152,-0.0154,-0.0168,-0.0172,-0.0169,-0.0164,-0.0155,-0.0156,-0.0155,-0.017,-0.017,-0.017,-0.017,-0.017,0,-0.0218,-0.0209,-0.0192,-0.0182,-0.0171,-0.0162,-0.015,-0.0151,-0.0141,-0.0139,-0.0125,-0.0121,-0.0114,-0.0131,-0.0145,-0.0159,-0.0158,-0.0165,-0.0169,-0.017,-0.0158,-0.0157,-0.0155,-0.0164,-0.0164,-0.0164,-0.0164,0,-0.0198,-0.0192,-0.0182,-0.0164,-0.0146,-0.0133,-0.0118,-0.0108,-0.0109,-0.0102,-0.0092,-0.0089,-0.01,-0.0124,-0.0147,-0.0146,-0.0168,-0.0165,-0.0167,-0.0167,-0.0164,-0.0153,-0.0152,-0.0164,-0.0164,-0.0164,-0.0164,-0.0164,-0.0179,-0.0173,-0.0163,-0.0148,-0.0131,-0.0111,-0.0095,-0.0085,-0.0075,-0.007,-0.0067,-0.0088,-0.0115,-0.0157,-0.0154,-0.0152,-0.0155,-0.0166,-0.0166,-0.0166,-0.0167,-0.0166,-0.0165,-0.0165,-0.0165,-0.0165,-0.0165,0,-0.015,-0.0158,-0.015,-0.013,-0.0113,-0.0105,-0.0079,-0.0071,-0.0056,-0.0066,-0.0066,-0.0121,-0.014,-0.0162,-0.0171,-0.0172,-0.0157,-0.0159,-0.0157,-0.0157,-0.0158,-0.0159,-0.0154,-0.0154,-0.0154,-0.0154,0,0,-0.0132,-0.013,-0.0138,-0.012,-0.0107,-0.0079,-0.006,-0.0054,-0.0066,-0.0094,-0.0127,-0.0136,-0.0178,-0.0189,-0.0176,-0.0174,-0.0157,-0.0155,-0.0164,-0.0163,-0.0163,-0.0163,-0.0165,0,0,0,0,0]},{"header":{"parameterUnit":"m.s-1","parameterCategory":2,"la1":30.2991,"la2":30.254,"lo1":-89.0895,"lo2":-89.0444,"dy":0.0017,"dx":0.0017,"nx":28,"ny":28,"refTime":"2025-04-14T09:00:00:Z","depth":"2","parameterNumber":3,"parameterNumberName":"V-component_of_CURRENTS"},"data":[0,0,0,0,0,0,0,0,0,0,0,0,0,0,0,0,0,0,0,0,0,0,0,0,0,0,0,0,0,0,0,0,0,0,0,0,0,0,0,0,0,0,0,0,0,0,0,0,0,0,0,0,0,0,0,0,0,0,0.0075,0.0075,0,0.0045,0.0044,0.0044,0.0024,0.0024,0.0024,0.0024,0.0032,0.0032,0.0032,0,0,0,0,0,0,0,0,0,0,0,0,0,0.0099,0.0099,0.0075,0.0075,0.0075,0.0045,0.0044,0.0043,0.0024,0.0024,0.0024,0.0025,0.0032,0.0032,0.0032,0,0,0,0,0,0,0,0,0,0,0,0,0,0.0079,0.0099,0.0075,0.0063,0.0062,0.0045,0.0044,0.0043,0.0024,0.0024,0.0024,0.0025,0.0032,0.0032,0.0032,0.003,0,0,0.0032,0.0032,0,0,0,0,0,0,0,0,0.008,0.0078,0.0065,0.0064,0.0063,0.004,0.0055,0.0041,0.0024,0.0036,0.0024,0.0025,0.004,0.0039,0.0029,0.003,0.003,0.0032,0.0032,0.0032,0.0033,0,0,0,0,0,0,0,0.0081,0.0079,0.0061,0.0065,0.0064,0.0054,0.0051,0.0052,0.0036,0.0035,0.0034,0.0034,0.0039,0.0029,0.0029,0.0031,0.0032,0.0032,0.0033,0.0033,0.002,0.0019,0,0,0,0,0,0,0.0091,0.008,0.0062,0.006,0.0075,0.0053,0.005,0.0045,0.0035,0.0034,0.0034,0.0034,0.0029,0.0029,0.003,0.0019,0.0032,0.0033,0.0033,0.002,0.002,0.0019,0,0,0,0,0,0,0.0091,0.0089,0.0063,0.0072,0.0068,0.0053,0.0048,0.0045,0.0038,0.0035,0.0034,0.0031,0.0029,0.0029,0.0024,0.0019,0.0033,0.0033,0.0021,0.002,0.0019,0.0003,0,0,0,0,0,0,0.0092,0.0089,0.0088,0.0072,0.0068,0.0055,0.0048,0.0044,0.0039,0.0038,0.0032,0.0033,0.0029,0.0023,0.0024,0.002,0.0033,0.0021,0.002,0.002,0.0004,0.0002,-0.0,0,0,0,0,0,0.0093,0.0086,0.0088,0.0086,0.0067,0.0055,0.0051,0.004,0.0039,0.0034,0.0025,0.0033,0.0019,0.0023,0.0024,0.002,0.0022,0.0021,0.002,0.0005,0.0002,-0.0,0,0,0,0,0,0,0.0095,0.0084,0.0085,0.0076,0.007,0.0053,0.0047,0.0043,0.0031,0.0028,0.0027,0.0026,0.0017,0.0022,0.0027,0.0013,0.0022,0.0021,0.001,0.0008,0.0006,0.0025,0.0033,0,0,0,0,0,0.0097,0.0089,0.0082,0.0075,0.0073,0.0063,0.0057,0.0049,0.0038,0.0032,0.0029,0.0023,0.0013,0.0014,0.0006,0.0003,0.0011,0.0001,-0.0001,-0.0003,0.0013,0.0006,0.0005,0.0016,0.0016,0.0016,0,0,0.0097,0.009,0.0086,0.0075,0.0069,0.0062,0.0058,0.0047,0.0042,0.0036,0.0027,0.0016,0.0009,-0.0003,-0.0005,0.0002,-0.0003,-0.0004,-0.0005,0.0011,0.0005,0.0004,0.0003,0.0015,0.0015,0.0016,0,0,0.009,0.0087,0.0078,0.0075,0.0066,0.0059,0.0059,0.0046,0.0041,0.0033,0.0019,0.0007,0.0003,-0.001,-0.0015,-0.0029,-0.0018,-0.0032,-0.0022,-0.003,-0.003,-0.0031,-0.0027,-0.0026,-0.0029,-0.0029,-0.0029,0,0.0094,0.0079,0.0075,0.0068,0.0066,0.006,0.0054,0.0047,0.0033,0.0032,0.0032,0.0012,0.0001,-0.0014,-0.0025,-0.0033,-0.003,-0.0014,-0.0032,-0.0032,-0.0032,-0.0028,-0.0027,-0.003,-0.003,-0.0029,-0.0029,0,0.008,0.0072,0.0067,0.0058,0.0056,0.0047,0.0044,0.0039,0.0037,0.0033,0.0025,0.0008,-0.0,-0.0013,-0.0023,-0.0034,-0.003,-0.0038,-0.0024,-0.0034,-0.0029,-0.0028,-0.0031,-0.0031,-0.003,-0.003,0,0,0.0083,0.0061,0.0061,0.0058,0.005,0.0045,0.004,0.0036,0.0036,0.0031,0.0032,0.0008,0.0006,-0.0,-0.0017,-0.0022,-0.0034,-0.0028,-0.0028,-0.002,-0.004,-0.0032,-0.003,-0.0047,-0.0047,-0.0047,-0.0037,0,0.0076,0.0059,0.005,0.0042,0.0037,0.0035,0.0032,0.0029,0.0031,0.0031,0.0024,0.0017,0.0009,-0.0001,-0.0007,-0.0031,-0.0032,-0.0035,-0.0033,-0.0032,-0.0022,-0.0029,-0.0015,-0.0004,-0.0037,-0.0037,-0.0036,0,0.0068,0.0058,0.0043,0.0035,0.0034,0.0029,0.003,0.0025,0.0027,0.0029,0.0032,0.0029,0.0018,0.0012,-0.0004,-0.0006,-0.0018,-0.0028,-0.0029,-0.0009,-0.0023,0.0001,-0.0002,-0.0035,-0.0035,-0.0035,-0.0036,0,0.0072,0.0056,0.0042,0.0039,0.0028,0.0026,0.0023,0.0026,0.0026,0.003,0.0032,0.0032,0.0022,0.0016,-0.0003,-0.0006,-0.0015,-0.0026,-0.0023,-0.0022,-0.0001,0.0002,-0.0029,-0.0029,-0.0029,-0.0029,-0.0029,0,0.0068,0.0062,0.0042,0.0037,0.0032,0.0026,0.0024,0.0027,0.0027,0.0025,0.003,0.0031,0.0022,0.0016,0.0005,-0.0003,-0.0009,-0.0012,-0.0019,-0.0007,-0.0006,-0.0024,-0.0024,-0.0028,-0.0028,-0.0028,-0.0029,0,0.0075,0.0057,0.0047,0.0033,0.0032,0.0031,0.0026,0.0026,0.0024,0.0024,0.0025,0.0027,0.0019,0.0017,0.0,0.0002,-0.0005,-0.0007,0.0014,0.001,-0.0006,-0.0007,0.0005,0.0006,0.0006,0.0006,0.0006,0,0.0072,0.0064,0.005,0.0044,0.0039,0.0033,0.003,0.0029,0.003,0.002,0.0022,0.0017,0.0018,0.0013,0.001,0.0011,-0.0003,0.0027,0.0024,0.0005,-0.0003,-0.0004,-0.0005,0.0044,0.0044,0.0045,0.0045,0,0.0077,0.0071,0.0065,0.0053,0.0048,0.0045,0.0043,0.0045,0.0035,0.0034,0.0031,0.003,0.002,0.0034,0.0036,0.0032,0.0031,0.0036,0.0007,0.0032,0.0042,0.0034,0.0032,0.0049,0.0048,0.0048,0.0048,0.0048,0.0084,0.0086,0.0074,0.0068,0.0061,0.0063,0.0074,0.0069,0.0073,0.0078,0.0051,0.006,0.0055,0.0076,0.0067,0.0059,0.0047,0.0057,0.0055,0.0053,0.0055,0.0065,0.0077,0.0077,0.0077,0.0077,0.0076,0,0.009,0.0094,0.0088,0.0085,0.0084,0.0077,0.0086,0.0108,0.0124,0.0106,0.0104,0.0121,0.0121,0.0109,0.0106,0.0098,0.0089,0.0096,0.0093,0.009,0.0086,0.0089,0.0121,0.0121,0.0121,0.0121,0,0,0.0093,0.0098,0.0099,0.0107,0.0104,0.0134,0.0148,0.0182,0.0191,0.0196,0.0192,0.0164,0.0145,0.0158,0.0139,0.0136,0.0114,0.0131,0.0097,0.0093,0.009,0.0066,0.0067,0,0,0,0,0]}],[{"header":{"parameterUnit":"m.s-1","parameterCategory":2,"la1":30.2991,"la2":30.254,"lo1":-89.0895,"lo2":-89.0444,"dy":0.0017,"dx":0.0017,"nx":28,"ny":28,"refTime":"2025-04-14T09:00:00:Z","depth":"4","parameterNumber":2,"parameterNumberName":"U-component_of_CURRENTS"},"data":[0,0,0,0,0,0,0,0,0,0,0,0,0,0,0,0,0,0,0,0,0,0,0,0,0,0,0,0,0,0,0,0,0,0,0,0,0,0,0,0,0,0,0,0,0,0,0,0,0,0,0,0,0,0,0,0,0,0,-0.0684,-0.0684,0,-0.0731,-0.0732,-0.0732,-0.0769,-0.077,-0.077,-0.077,-0.0931,-0.0934,-0.0938,0,0,0,0,0,0,0,0,0,0,0,0,0,-0.0609,-0.061,-0.0684,-0.0685,-0.0685,-0.0731,-0.0732,-0.0732,-0.0769,-0.077,-0.077,-0.0771,-0.093,-0.0934,-0.0939,0,0,0,0,0,0,0,0,0,0,0,0,0,-0.0646,-0.061,-0.0684,-0.071,-0.0713,-0.0731,-0.0732,-0.0732,-0.0769,-0.077,-0.077,-0.0771,-0.0928,-0.0934,-0.0939,-0.096,0,0,-0.0957,-0.0959,0,0,0,0,0,0,0,0,-0.0644,-0.0648,-0.0706,-0.0708,-0.0712,-0.0746,-0.0764,-0.0815,-0.0769,-0.0746,-0.0771,-0.0771,-0.088,-0.089,-0.0893,-0.0968,-0.0975,-0.0957,-0.0961,-0.0963,-0.0965,0,0,0,0,0,0,0,-0.0641,-0.0647,-0.0701,-0.0706,-0.071,-0.0714,-0.072,-0.0773,-0.081,-0.0748,-0.0751,-0.0759,-0.0882,-0.0888,-0.0898,-0.0977,-0.0957,-0.0962,-0.0966,-0.0968,-0.1223,-0.1226,0,0,0,0,0,0,-0.0638,-0.0644,-0.07,-0.0703,-0.068,-0.0715,-0.0722,-0.0733,-0.0807,-0.0818,-0.0758,-0.076,-0.0877,-0.0891,-0.0904,-0.1015,-0.0963,-0.0969,-0.0972,-0.122,-0.1224,-0.1227,0,0,0,0,0,0,-0.0637,-0.0643,-0.0698,-0.0675,-0.0683,-0.0716,-0.0728,-0.0734,-0.0764,-0.0813,-0.0826,-0.0785,-0.0879,-0.0896,-0.0985,-0.1019,-0.0971,-0.0976,-0.1216,-0.1221,-0.1226,-0.1186,0,0,0,0,0,0,-0.0634,-0.0642,-0.0662,-0.0675,-0.0684,-0.0731,-0.0728,-0.0734,-0.0766,-0.077,-0.084,-0.0854,-0.088,-0.0976,-0.0991,-0.1026,-0.0981,-0.1212,-0.1218,-0.1224,-0.1183,-0.1189,-0.1194,0,0,0,0,0,-0.0631,-0.0656,-0.0662,-0.067,-0.0706,-0.0733,-0.0738,-0.0762,-0.0767,-0.0789,-0.0843,-0.0853,-0.1027,-0.0983,-0.0999,-0.1037,-0.1209,-0.1216,-0.1224,-0.1181,-0.1188,-0.1194,0,0,0,0,0,0,-0.0634,-0.0662,-0.067,-0.0702,-0.0725,-0.074,-0.0765,-0.0774,-0.0829,-0.0839,-0.0883,-0.0902,-0.1003,-0.1035,-0.0985,-0.1138,-0.1125,-0.1136,-0.1088,-0.1095,-0.11,-0.1028,-0.0986,0,0,0,0,0,-0.0642,-0.0666,-0.069,-0.0716,-0.0731,-0.075,-0.0767,-0.0779,-0.082,-0.0843,-0.0897,-0.0968,-0.1042,-0.1078,-0.1153,-0.1219,-0.12,-0.1265,-0.127,-0.1274,-0.1233,-0.1224,-0.1222,-0.1252,-0.1252,-0.1252,0,0,-0.0645,-0.0666,-0.0679,-0.0718,-0.0736,-0.0775,-0.0763,-0.0793,-0.0847,-0.0855,-0.0958,-0.0996,-0.1072,-0.1156,-0.1203,-0.1183,-0.1268,-0.1283,-0.1285,-0.1241,-0.1231,-0.1227,-0.1223,-0.1257,-0.1256,-0.1255,0,0,-0.0659,-0.0688,-0.0713,-0.074,-0.0776,-0.0798,-0.0813,-0.0849,-0.0894,-0.0983,-0.1007,-0.1048,-0.1187,-0.1205,-0.1244,-0.1328,-0.1309,-0.138,-0.1326,-0.132,-0.1314,-0.1309,-0.1306,-0.1301,-0.1366,-0.1366,-0.1366,0,-0.0662,-0.0703,-0.0724,-0.076,-0.0798,-0.0816,-0.0861,-0.091,-0.0975,-0.0995,-0.1034,-0.1148,-0.1207,-0.125,-0.1273,-0.1332,-0.1318,-0.1282,-0.1316,-0.1311,-0.1306,-0.1304,-0.1299,-0.1365,-0.1365,-0.1365,-0.1366,0,-0.0695,-0.0736,-0.0756,-0.0817,-0.0863,-0.0899,-0.0968,-0.1018,-0.1077,-0.1093,-0.1166,-0.1216,-0.1245,-0.13,-0.1309,-0.1306,-0.1306,-0.1328,-0.1272,-0.1298,-0.1299,-0.1293,-0.1364,-0.1364,-0.1364,-0.1365,0,0,-0.0666,-0.0762,-0.077,-0.0813,-0.0897,-0.0934,-0.1033,-0.1095,-0.1111,-0.1187,-0.1199,-0.1296,-0.1231,-0.1266,-0.1269,-0.1255,-0.1224,-0.1252,-0.1252,-0.1199,-0.1194,-0.1108,-0.1094,-0.123,-0.1229,-0.1228,-0.1214,0,-0.0685,-0.0759,-0.082,-0.0909,-0.095,-0.1021,-0.1091,-0.1144,-0.1197,-0.121,-0.1228,-0.1241,-0.1252,-0.122,-0.1209,-0.1219,-0.1203,-0.1224,-0.1218,-0.1218,-0.1095,-0.1082,-0.1223,-0.1209,-0.1208,-0.1207,-0.1207,0,-0.0693,-0.0744,-0.083,-0.0933,-0.0959,-0.1015,-0.1098,-0.1152,-0.1165,-0.1183,-0.1153,-0.1155,-0.1118,-0.1139,-0.1124,-0.1127,-0.1136,-0.1158,-0.1159,-0.1069,-0.1119,-0.118,-0.1197,-0.1197,-0.1198,-0.1199,-0.1199,0,-0.0639,-0.0757,-0.0832,-0.087,-0.098,-0.103,-0.1071,-0.1108,-0.1119,-0.1099,-0.1073,-0.1057,-0.1027,-0.1036,-0.1051,-0.1077,-0.1044,-0.1104,-0.1045,-0.1042,-0.1138,-0.1143,-0.1088,-0.1088,-0.1088,-0.1088,-0.1088,0,-0.0625,-0.0678,-0.0803,-0.0832,-0.0884,-0.0968,-0.0977,-0.1014,-0.1002,-0.0963,-0.0987,-0.0956,-0.0992,-0.0988,-0.1016,-0.0981,-0.1013,-0.1,-0.1012,-0.1134,-0.1139,-0.1135,-0.114,-0.1088,-0.1088,-0.1088,-0.1088,0,-0.0539,-0.0631,-0.0707,-0.0827,-0.0851,-0.0869,-0.0898,-0.0888,-0.088,-0.0831,-0.0809,-0.085,-0.0844,-0.0889,-0.0915,-0.0918,-0.092,-0.0908,-0.1009,-0.1035,-0.0942,-0.0947,-0.0845,-0.0842,-0.0839,-0.0836,-0.0834,0,-0.0501,-0.0526,-0.0661,-0.0688,-0.0741,-0.0759,-0.0756,-0.0791,-0.0774,-0.0767,-0.0742,-0.0742,-0.0763,-0.0723,-0.0793,-0.0818,-0.0833,-0.0824,-0.0891,-0.0884,-0.0908,-0.0918,-0.0927,-0.0829,-0.0828,-0.0828,-0.0827,0,-0.0405,-0.0464,-0.0524,-0.0571,-0.0612,-0.0634,-0.0638,-0.0614,-0.0638,-0.065,-0.0625,-0.0632,-0.0632,-0.0675,-0.0671,-0.071,-0.082,-0.0793,-0.0802,-0.0865,-0.0864,-0.0893,-0.0905,-0.0816,-0.0818,-0.0819,-0.0819,0,-0.0323,-0.0338,-0.0418,-0.0465,-0.0507,-0.0525,-0.0534,-0.0533,-0.0521,-0.054,-0.0532,-0.0565,-0.0605,-0.0618,-0.0626,-0.0627,-0.0663,-0.0672,-0.0688,-0.07,-0.0663,-0.0641,-0.0498,0,0,0,0,0,-0.0247,-0.0269,-0.0299,-0.0379,-0.0422,-0.0459,-0.0479,-0.0494,-0.0525,-0.0481,-0.0497,-0.0495,-0.0507,-0.0548,-0.053,-0.0606,-0.0681,-0.0585,-0.0703,-0.0757,-0.077,-0.0741,0,0,0,0,0,0,-0.021,-0.0231,-0.0273,-0.0299,-0.0337,-0.0381,-0.0407,-0.0432,-0.0408,-0.0436,-0.0449,-0.0465,-0.0497,-0.0504,-0.052,-0.0529,-0.0594,-0.061,-0.0609,-0.075,-0.0761,-0.0771,-0.0746,0,0,0,0,0]},{"header":{"parameterUnit":"m.s-1","parameterCategory":2,"la1":30.2991,"la2":30.254,"lo1":-89.0895,"lo2":-89.0444,"dy":0.0017,"dx":0.0017,"nx":28,"ny":28,"refTime":"2025-04-14T09:00:00:Z","depth":"4","parameterNumber":3,"parameterNumberName":"V-component_of_CURRENTS"},"data":[0,0,0,0,0,0,0,0,0,0,0,0,0,0,0,0,0,0,0,0,0,0,0,0,0,0,0,0,0,0,0,0,0,0,0,0,0,0,0,0,0,0,0,0,0,0,0,0,0,0,0,0,0,0,0,0,0,0,0.0228,0.0228,0,0.0293,0.0294,0.0295,0.0332,0.0332,0.0332,0.0332,0.0328,0.0328,0.0328,0,0,0,0,0,0,0,0,0,0,0,0,0,0.018,0.0181,0.0228,0.0229,0.0229,0.0293,0.0294,0.0295,0.0332,0.0332,0.0332,0.0332,0.0328,0.0328,0.0328,0,0,0,0,0,0,0,0,0,0,0,0,0,0.022,0.0181,0.0228,0.0254,0.0257,0.0292,0.0294,0.0295,0.0332,0.0332,0.0332,0.0332,0.0328,0.0328,0.0328,0.0328,0,0,0.0327,0.0327,0,0,0,0,0,0,0,0,0.0218,0.0222,0.025,0.0252,0.0256,0.0303,0.0275,0.0302,0.0332,0.0306,0.0332,0.0332,0.0312,0.0313,0.0329,0.0327,0.0327,0.0327,0.0327,0.0327,0.0327,0,0,0,0,0,0,0,0.0215,0.022,0.0256,0.025,0.0254,0.0278,0.0283,0.0281,0.0308,0.0308,0.0311,0.0315,0.0313,0.0329,0.0329,0.0327,0.0327,0.0327,0.0327,0.0327,0.0367,0.0368,0,0,0,0,0,0,0.0201,0.0217,0.0253,0.0257,0.0234,0.0278,0.0284,0.0289,0.031,0.0313,0.0315,0.0316,0.033,0.0329,0.0329,0.033,0.0327,0.0327,0.0327,0.0366,0.0367,0.0368,0,0,0,0,0,0,0.02,0.0204,0.0251,0.0237,0.0244,0.0278,0.0284,0.029,0.0312,0.0315,0.0318,0.0329,0.0329,0.0329,0.032,0.033,0.0327,0.0327,0.0364,0.0366,0.0367,0.0331,0,0,0,0,0,0,0.0198,0.0203,0.021,0.0236,0.0245,0.0265,0.0284,0.0292,0.0313,0.0316,0.0328,0.0328,0.0329,0.032,0.0319,0.0329,0.0327,0.0363,0.0365,0.0367,0.0331,0.0331,0.0332,0,0,0,0,0,0.0196,0.0202,0.021,0.0215,0.025,0.0265,0.0272,0.0297,0.0314,0.0318,0.0323,0.0328,0.0335,0.0319,0.0319,0.0329,0.0362,0.0364,0.0367,0.0331,0.0331,0.0332,0,0,0,0,0,0,0.0192,0.0208,0.0216,0.0229,0.0242,0.027,0.0286,0.03,0.0312,0.0316,0.0322,0.0321,0.0318,0.0335,0.0318,0.0354,0.0358,0.036,0.0331,0.0331,0.0332,0.0312,0.0327,0,0,0,0,0,0.0192,0.02,0.0214,0.0227,0.0234,0.0261,0.0275,0.0287,0.0298,0.0306,0.0314,0.0329,0.0331,0.0337,0.0339,0.035,0.0343,0.0367,0.0367,0.0367,0.0355,0.0334,0.033,0.0376,0.0376,0.0376,0,0,0.0193,0.0206,0.021,0.0227,0.0246,0.025,0.027,0.0287,0.0298,0.03,0.0319,0.0317,0.0331,0.0337,0.0342,0.0351,0.0357,0.037,0.037,0.0358,0.0336,0.0331,0.0327,0.0378,0.0378,0.0378,0,0,0.0197,0.0211,0.0216,0.0223,0.0242,0.0252,0.0254,0.0278,0.0298,0.0314,0.0312,0.0306,0.0341,0.033,0.0336,0.0344,0.0349,0.0371,0.0363,0.0343,0.0338,0.0333,0.0334,0.0329,0.0384,0.0384,0.0384,0,0.0199,0.0208,0.022,0.0225,0.0235,0.0249,0.0254,0.0273,0.0291,0.0297,0.0321,0.0325,0.0337,0.0311,0.0328,0.034,0.034,0.0352,0.0339,0.0334,0.033,0.0331,0.0327,0.0382,0.0382,0.0383,0.0383,0,0.0203,0.021,0.0215,0.0223,0.0231,0.0239,0.0253,0.0267,0.0299,0.0309,0.0305,0.0305,0.0304,0.0321,0.0334,0.031,0.0323,0.0326,0.0325,0.0322,0.0326,0.0321,0.038,0.0381,0.0381,0.0381,0,0,0.0208,0.0216,0.0217,0.0226,0.0232,0.0242,0.0253,0.0263,0.0266,0.0286,0.0284,0.029,0.0276,0.0281,0.0276,0.0273,0.0258,0.0298,0.0298,0.0277,0.0229,0.0235,0.0232,0.0255,0.0253,0.0252,0.0248,0,0.0211,0.0211,0.022,0.0229,0.0229,0.0245,0.0254,0.0261,0.0275,0.0273,0.0265,0.0256,0.0265,0.026,0.0248,0.0247,0.0243,0.026,0.0254,0.0254,0.0241,0.0225,0.0249,0.0244,0.0243,0.0243,0.0242,0,0.0214,0.0211,0.0218,0.0231,0.0237,0.0256,0.0266,0.0266,0.0252,0.0262,0.0226,0.0215,0.0185,0.021,0.0179,0.019,0.0209,0.0217,0.0216,0.0226,0.0251,0.0248,0.0235,0.0235,0.0236,0.0236,0.0237,0,0.0209,0.0218,0.0229,0.0232,0.0242,0.0274,0.0282,0.0271,0.0266,0.0237,0.0228,0.0175,0.0165,0.0151,0.0172,0.0177,0.0157,0.0163,0.0179,0.0181,0.019,0.0195,0.0145,0.0145,0.0145,0.0145,0.0145,0,0.0209,0.0222,0.0241,0.0247,0.0276,0.0279,0.029,0.0294,0.0265,0.0238,0.021,0.0174,0.0154,0.0141,0.0154,0.0151,0.0138,0.0164,0.017,0.0182,0.0186,0.0188,0.0193,0.0145,0.0145,0.0145,0.0145,0,0.0215,0.0219,0.0238,0.0262,0.0279,0.0302,0.0313,0.0298,0.0277,0.0238,0.0229,0.018,0.0152,0.0142,0.0132,0.0137,0.0134,0.0145,0.0168,0.0177,0.0176,0.018,0.0139,0.0139,0.0139,0.0139,0.0139,0,0.0227,0.0232,0.0255,0.0272,0.0306,0.0325,0.0327,0.0313,0.0289,0.0235,0.0218,0.0181,0.0151,0.0131,0.0122,0.0125,0.0136,0.0143,0.0142,0.0161,0.0171,0.0175,0.0178,0.0139,0.0139,0.0139,0.0139,0,0.0246,0.0259,0.0261,0.0278,0.0311,0.0315,0.0326,0.0313,0.0272,0.0255,0.0203,0.0175,0.0144,0.0118,0.0133,0.0134,0.0133,0.0143,0.0143,0.0141,0.0161,0.0171,0.0175,0.0139,0.0139,0.0139,0.0139,0,0.0267,0.0271,0.0263,0.0285,0.0306,0.0312,0.0313,0.0293,0.0267,0.0225,0.0203,0.0162,0.0136,0.0123,0.0126,0.0132,0.0129,0.0141,0.0141,0.0141,0.0143,0.0168,0.0141,0,0,0,0,0,0.0276,0.0261,0.0272,0.0283,0.0296,0.0314,0.0307,0.0295,0.0268,0.0237,0.0222,0.0191,0.0162,0.0135,0.0142,0.0128,0.0137,0.0136,0.0152,0.0139,0.0139,0.0141,0,0,0,0,0,0,0.0277,0.0271,0.0258,0.0267,0.0286,0.0296,0.0297,0.0282,0.0262,0.0239,0.022,0.0206,0.0177,0.0166,0.0147,0.0144,0.0158,0.0121,0.0121,0.0139,0.0139,0.0139,0.0141,0,0,0,0,0]}]]